,,PA_Meas_PMT16A,,PR_Meas_QMR101_102,,RH_Meas_QMH101,,SR_Meas_QMS101,,TA_Meas_QMH101,,GenWind,,GenWind,
time,status,PA,status,PR,status,RH,status,SR,status,TA,status,DirAvg,status,SpdAvg,
2015-11-16, 07:25:04,VALID,917.569,VALID,0,VALID,101.437,VALID,155.252,VALID,20.1139,VALID,5,VALID,0,
2015-11-16, 07:26:04,VALID,917.545,VALID,0,VALID,101.43,VALID,198.551,VALID,20.1513,VALID,5,VALID,0,
2015-11-16, 07:27:04,VALID,917.581,VALID,0,VALID,101.46,VALID,187.27,VALID,20.1708,VALID,5,VALID,0,
2015-11-16, 07:28:04,VALID,917.585,VALID,0,VALID,101.399,VALID,159.872,VALID,20.2894,VALID,5,VALID,0,
2015-11-16, 07:29:04,VALID,917.608,VALID,0,VALID,101.353,VALID,138.921,VALID,20.4634,VALID,5,VALID,0,
2015-11-16, 07:30:04,VALID,917.637,VALID,0,VALID,101.323,VALID,137.202,VALID,20.5219,VALID,5,VALID,0,
2015-11-16, 07:31:04,VALID,917.64,VALID,0,VALID,101.391,VALID,130.648,VALID,20.4244,VALID,5,VALID,0,
2015-11-16, 07:32:04,VALID,917.654,VALID,0,VALID,101.391,VALID,141.93,VALID,20.4244,VALID,5,VALID,0,
2015-11-16, 07:33:04,VALID,917.686,VALID,0,VALID,101.399,VALID,163.203,VALID,20.4439,VALID,5,VALID,0,
2015-11-16, 07:34:04,VALID,917.733,VALID,0,VALID,101.384,VALID,182.328,VALID,20.4228,VALID,5,VALID,0,
2015-11-16, 07:35:04,VALID,917.729,VALID,0,VALID,101.43,VALID,185.981,VALID,20.4228,VALID,5,VALID,0,
2015-11-16, 07:36:04,VALID,917.779,VALID,0,VALID,101.422,VALID,208.758,VALID,20.5024,VALID,5,VALID,0,
2015-11-16, 07:37:04,VALID,917.793,VALID,0,VALID,101.391,VALID,213.056,VALID,20.5594,VALID,5,VALID,0,
2015-11-16, 07:38:04,VALID,917.764,VALID,0,VALID,101.391,VALID,205.642,VALID,20.6585,VALID,5,VALID,0,
2015-11-16, 07:39:04,VALID,917.77,VALID,0,VALID,101.376,VALID,211.981,VALID,20.717,VALID,5,VALID,0,
2015-11-16, 07:40:04,VALID,917.785,VALID,0,VALID,101.399,VALID,199.518,VALID,20.717,VALID,5,VALID,0,
2015-11-16, 07:41:04,VALID,917.829,VALID,0,VALID,101.43,VALID,164.6,VALID,20.7365,VALID,275,VALID,0,
2015-11-16, 07:42:04,VALID,917.856,VALID,0,VALID,101.46,VALID,154.823,VALID,20.717,VALID,276,VALID,0,
2015-11-16, 07:43:04,VALID,917.861,VALID,0,VALID,101.513,VALID,142.252,VALID,20.678,VALID,276,VALID,0,
2015-11-16, 07:44:04,VALID,917.876,VALID,0,VALID,101.506,VALID,113.995,VALID,20.717,VALID,275,VALID,0,
2015-11-16, 08:00:04,VALID,918.18,VALID,0,VALID,101.811,VALID,107.226,VALID,20.5219,VALID,275,VALID,0,
2015-11-16, 08:05:04,VALID,918.253,VALID,0,VALID,101.971,VALID,105.292,VALID,20.4618,VALID,275,VALID,0,
2015-11-16, 08:06:04,VALID,918.259,VALID,0,VALID,102.039,VALID,110.45,VALID,20.4423,VALID,275,VALID,0,
2015-11-16, 08:07:04,VALID,918.284,VALID,0,VALID,102.078,VALID,116.789,VALID,20.4423,VALID,275,VALID,0,
2015-11-16, 08:08:04,VALID,918.299,VALID,0,VALID,102.039,VALID,123.128,VALID,20.5219,VALID,275,VALID,0,
2015-11-16, 08:09:04,VALID,918.346,VALID,0,VALID,102.017,VALID,129.037,VALID,20.5804,VALID,275,VALID,0,
2015-11-16, 08:10:04,VALID,918.343,VALID,0,VALID,102.024,VALID,135.161,VALID,20.6194,VALID,275,VALID,0,
2015-11-16, 08:11:04,VALID,918.38,VALID,0,VALID,102.039,VALID,142.574,VALID,20.6585,VALID,275,VALID,0,
2015-11-16, 08:12:04,VALID,918.416,VALID,0,VALID,102.078,VALID,149.128,VALID,20.6569,VALID,275,VALID,0,
2015-11-16, 08:13:04,VALID,918.438,VALID,0,VALID,102.192,VALID,152.244,VALID,20.6179,VALID,275,VALID,0,
2015-11-16, 08:14:04,VALID,918.432,VALID,0,VALID,102.26,VALID,156.649,VALID,20.6194,VALID,275,VALID,0,
2015-11-16, 08:15:04,VALID,918.462,VALID,0,VALID,102.23,VALID,168.145,VALID,20.6764,VALID,275,VALID,0,
2015-11-16, 08:16:04,VALID,918.468,VALID,0,VALID,102.26,VALID,181.361,VALID,20.795,VALID,275,VALID,0,
2015-11-16, 08:17:04,VALID,918.491,VALID,0,VALID,102.306,VALID,196.188,VALID,20.795,VALID,275,VALID,0,
2015-11-16, 08:18:04,VALID,918.478,VALID,0,VALID,102.428,VALID,215.205,VALID,20.756,VALID,275,VALID,0,
2015-11-16, 08:19:04,VALID,918.501,VALID,0,VALID,102.451,VALID,246.04,VALID,20.8129,VALID,275,VALID,0,
2015-11-16, 08:20:04,VALID,918.515,VALID,0,VALID,102.466,VALID,343.489,VALID,20.8324,VALID,275,VALID,0,
2015-11-16, 08:21:04,VALID,918.52,VALID,0,VALID,102.535,VALID,275.909,VALID,20.8519,VALID,275,VALID,0,
2015-11-16, 08:22:04,VALID,918.541,VALID,0,VALID,102.527,VALID,310.397,VALID,20.9885,VALID,275,VALID,0,
2015-11-16, 08:23:04,VALID,918.551,VALID,0,VALID,102.634,VALID,270,VALID,20.9885,VALID,275,VALID,0,
2015-11-16, 08:24:04,VALID,918.53,VALID,0,VALID,102.733,VALID,270.107,VALID,21.008,VALID,261,VALID,0,
2015-11-16, 08:25:04,VALID,918.575,VALID,0,VALID,102.764,VALID,296.752,VALID,21.0665,VALID,261,VALID,0,
2015-11-16, 08:26:04,VALID,918.595,VALID,0,VALID,102.794,VALID,284.504,VALID,21.1445,VALID,261,VALID,0,
2015-11-16, 08:27:04,VALID,918.599,VALID,0,VALID,102.908,VALID,286.116,VALID,21.1836,VALID,261,VALID,0,
2015-11-16, 08:28:04,VALID,918.579,VALID,0,VALID,102.916,VALID,332.638,VALID,21.2226,VALID,261,VALID,0,
2015-11-16, 08:29:04,VALID,918.588,VALID,0,VALID,102.779,VALID,514.321,VALID,21.338,VALID,261,VALID,0,
2015-11-16, 08:30:04,VALID,918.597,VALID,0,VALID,102.543,VALID,506.585,VALID,21.4372,VALID,288,VALID,0,
2015-11-16, 08:31:04,VALID,918.634,VALID,0,VALID,101.567,VALID,481.659,VALID,21.455,VALID,287,VALID,0,
2015-11-16, 08:32:04,VALID,918.645,VALID,0,VALID,101.048,VALID,486.816,VALID,21.6713,VALID,288,VALID,0,
2015-11-16, 08:33:04,VALID,918.699,VALID,0,VALID,99.4246,VALID,504.114,VALID,21.6696,VALID,288,VALID,0,
2015-11-16, 08:34:04,VALID,918.671,VALID,0,VALID,98.4259,VALID,484.56,VALID,21.7087,VALID,287,VALID,0,
2015-11-16, 08:35:04,VALID,918.694,VALID,0,VALID,97.9075,VALID,396.995,VALID,21.7493,VALID,260,VALID,0,
2015-11-16, 08:36:04,VALID,918.703,VALID,0,VALID,98.83,VALID,402.797,VALID,21.8469,VALID,304,VALID,0,
2015-11-16, 08:37:04,VALID,918.745,VALID,0,VALID,98.7842,VALID,422.244,VALID,21.9835,VALID,304,VALID,0,
2015-11-16, 08:38:04,VALID,918.73,VALID,0,VALID,98.3192,VALID,370.457,VALID,22.0615,VALID,308,VALID,0,
2015-11-16, 08:39:04,VALID,918.735,VALID,0,VALID,96.8707,VALID,320.819,VALID,22.1591,VALID,12,VALID,0,
2015-11-16, 08:40:04,VALID,918.757,VALID,0,VALID,95.8568,VALID,299.653,VALID,22.1981,VALID,12,VALID,0,
2015-11-16, 08:41:04,VALID,918.772,VALID,0,VALID,95.4375,VALID,312.761,VALID,22.255,VALID,12,VALID,0,
2015-11-16, 08:42:04,VALID,918.789,VALID,0,VALID,95.6434,VALID,330.382,VALID,22.333,VALID,12,VALID,0,
2015-11-16, 08:43:04,VALID,918.826,VALID,0,VALID,95.5748,VALID,331.241,VALID,22.4696,VALID,12,VALID,0,
2015-11-16, 08:44:04,VALID,918.838,VALID,0,VALID,95.2241,VALID,495.948,VALID,22.6257,VALID,11,VALID,0,
2015-11-16, 08:45:04,VALID,918.826,VALID,0,VALID,90.9778,VALID,390.119,VALID,22.8014,VALID,283,VALID,0,
2015-11-16, 08:46:04,VALID,918.867,VALID,0,VALID,86.6935,VALID,365.622,VALID,22.7038,VALID,269,VALID,0,
2015-11-16, 08:47:04,VALID,918.872,VALID,0,VALID,92.5635,VALID,363.259,VALID,22.663,VALID,258,VALID,0,
2015-11-16, 08:48:04,VALID,918.876,VALID,0,VALID,93.5698,VALID,375.399,VALID,22.6647,VALID,258,VALID,0,
2015-11-16, 08:49:04,VALID,918.903,VALID,0,VALID,91.2599,VALID,366.267,VALID,22.7038,VALID,303,VALID,0,
2015-11-16, 08:50:04,VALID,918.885,VALID,0,VALID,86.724,VALID,332.745,VALID,22.6843,VALID,281,VALID,0,
2015-11-16, 08:51:04,VALID,918.871,VALID,0,VALID,87.7608,VALID,307.711,VALID,22.6062,VALID,308,VALID,0,
2015-11-16, 08:52:04,VALID,918.859,VALID,0,VALID,95.064,VALID,289.232,VALID,22.5086,VALID,322,VALID,0,
2015-11-16, 08:53:04,VALID,918.848,VALID,0,VALID,96.5658,VALID,279.132,VALID,22.5655,VALID,336,VALID,0,
2015-11-16, 08:54:04,VALID,918.873,VALID,0,VALID,96.2837,VALID,265.272,VALID,22.6825,VALID,334,VALID,0,
2015-11-16, 08:55:04,VALID,918.847,VALID,0,VALID,90.5204,VALID,246.9,VALID,22.6257,VALID,254,VALID,0,
2015-11-16, 08:56:04,VALID,918.876,VALID,0,VALID,90.6272,VALID,225.734,VALID,22.4111,VALID,251,VALID,0,
2015-11-16, 08:57:04,VALID,918.841,VALID,0,VALID,94.7743,VALID,217.783,VALID,22.255,VALID,254,VALID,0,
2015-11-16, 08:58:04,VALID,918.862,VALID,0,VALID,95.1479,VALID,223.263,VALID,22.1379,VALID,246,VALID,0,
2015-11-16, 08:59:04,VALID,918.849,VALID,0,VALID,96.0017,VALID,235.511,VALID,22.0403,VALID,247,VALID,0,
2015-11-16, 09:00:04,VALID,918.83,VALID,0,VALID,96.9089,VALID,260.867,VALID,21.9818,VALID,254,VALID,0,
2015-11-16, 09:01:04,VALID,918.84,VALID,0,VALID,96.6954,VALID,287.835,VALID,21.9818,VALID,254,VALID,0,
2015-11-16, 09:02:04,VALID,918.831,VALID,0,VALID,96.4819,VALID,309.001,VALID,22.0598,VALID,257,VALID,0,
2015-11-16, 09:03:04,VALID,918.829,VALID,0,VALID,96.0703,VALID,314.803,VALID,22.1167,VALID,257,VALID,0,
2015-11-16, 09:04:04,VALID,918.823,VALID,0,VALID,95.5519,VALID,314.265,VALID,22.1964,VALID,285,VALID,0,
2015-11-16, 09:05:04,VALID,918.858,VALID,0,VALID,95.5519,VALID,310.612,VALID,22.2745,VALID,285,VALID,0,
2015-11-16, 09:06:04,VALID,918.891,VALID,0,VALID,95.9483,VALID,307.067,VALID,22.4323,VALID,285,VALID,0,
2015-11-16, 09:07:04,VALID,918.912,VALID,0,VALID,93.89,VALID,304.918,VALID,22.5086,VALID,276,VALID,0,
2015-11-16, 09:08:04,VALID,918.902,VALID,0,VALID,87.9742,VALID,303.629,VALID,22.5672,VALID,243,VALID,0,
2015-11-16, 09:09:04,VALID,918.902,VALID,0,VALID,85.3746,VALID,302.339,VALID,22.6257,VALID,243,VALID,0,
2015-11-16, 09:10:04,VALID,918.894,VALID,0,VALID,85.3746,VALID,300.191,VALID,22.7038,VALID,243,VALID,0,
2015-11-16, 09:11:04,VALID,918.94,VALID,0,VALID,85.55,VALID,297.182,VALID,22.8209,VALID,243,VALID,0,
2015-11-16, 09:12:04,VALID,918.96,VALID,0,VALID,84.9477,VALID,293.207,VALID,22.9948,VALID,243,VALID,0,
2015-11-16, 09:13:04,VALID,918.914,VALID,0,VALID,84.0939,VALID,286.76,VALID,23.1527,VALID,243,VALID,0,
2015-11-16, 09:14:04,VALID,918.913,VALID,0,VALID,82.7141,VALID,280.207,VALID,23.1527,VALID,266,VALID,0,
2015-11-16, 09:15:04,VALID,918.934,VALID,0,VALID,82.6912,VALID,275.264,VALID,23.016,VALID,247,VALID,0,
2015-11-16, 09:16:04,VALID,918.953,VALID,0,VALID,84.7343,VALID,274.082,VALID,22.9575,VALID,247,VALID,0,
2015-11-16, 09:17:04,VALID,918.943,VALID,0,VALID,84.4598,VALID,274.082,VALID,22.8989,VALID,248,VALID,0,
2015-11-16, 09:18:04,VALID,918.934,VALID,0,VALID,85.1841,VALID,277.735,VALID,22.8972,VALID,218,VALID,0,
2015-11-16, 09:19:04,VALID,918.946,VALID,0,VALID,88.5002,VALID,283,VALID,22.938,VALID,249,VALID,0,
2015-11-16, 09:20:04,VALID,918.959,VALID,0,VALID,90.6272,VALID,287.835,VALID,22.9965,VALID,249,VALID,0,
2015-11-16, 09:21:04,VALID,918.936,VALID,0,VALID,86.9069,VALID,293.422,VALID,23.0533,VALID,248,VALID,0,
2015-11-16, 09:22:04,VALID,918.981,VALID,0,VALID,82.4777,VALID,301.372,VALID,22.977,VALID,247,VALID,0,
2015-11-16, 09:23:04,VALID,918.966,VALID,0,VALID,83.8957,VALID,309.538,VALID,22.9753,VALID,263,VALID,0,
2015-11-16, 09:24:04,VALID,918.991,VALID,0,VALID,82.6073,VALID,314.05,VALID,22.9965,VALID,239,VALID,0,
2015-11-16, 09:25:04,VALID,918.997,VALID,0,VALID,81.2961,VALID,314.695,VALID,22.9362,VALID,241,VALID,0,
2015-11-16, 09:26:04,VALID,919.019,VALID,0,VALID,84.8791,VALID,312.654,VALID,22.977,VALID,236,VALID,0,
2015-11-16, 09:27:04,VALID,919.008,VALID,0,VALID,83.728,VALID,311.579,VALID,23.0356,VALID,295,VALID,0,
2015-11-16, 09:28:04,VALID,919.021,VALID,0,VALID,85.1002,VALID,311.687,VALID,23.1527,VALID,292,VALID,0,
2015-11-16, 09:29:04,VALID,919.051,VALID,0,VALID,84.8791,VALID,314.373,VALID,23.229,VALID,290,VALID,0,
2015-11-16, 09:30:04,VALID,919.041,VALID,0,VALID,84.8029,VALID,322.968,VALID,23.3851,VALID,290,VALID,0,
2015-11-16, 09:31:04,VALID,919.016,VALID,0,VALID,83.1486,VALID,328.018,VALID,23.5821,VALID,290,VALID,0,
2015-11-16, 09:32:04,VALID,919.043,VALID,0,VALID,81.4562,VALID,330.274,VALID,23.6193,VALID,313,VALID,0,
2015-11-16, 09:33:04,VALID,919.029,VALID,0,VALID,81.5782,VALID,333.605,VALID,23.6992,VALID,299,VALID,0,
2015-11-16, 09:34:04,VALID,919.016,VALID,0,VALID,80.8387,VALID,336.828,VALID,23.7382,VALID,267,VALID,0,
2015-11-16, 09:35:04,VALID,919.005,VALID,0,VALID,80.4652,VALID,342.522,VALID,23.6211,VALID,273,VALID,0,
2015-11-16, 09:36:04,VALID,918.978,VALID,0,VALID,81.3723,VALID,350.473,VALID,23.6388,VALID,274,VALID,0,
2015-11-16, 09:37:04,VALID,919.002,VALID,0,VALID,80.9836,VALID,360.358,VALID,23.6974,VALID,263,VALID,0,
2015-11-16, 09:38:04,VALID,918.947,VALID,0,VALID,80.8921,VALID,372.606,VALID,23.7169,VALID,263,VALID,0,
2015-11-16, 09:39:04,VALID,918.953,VALID,0,VALID,80.2441,VALID,386.036,VALID,23.6974,VALID,265,VALID,0,
2015-11-16, 09:40:04,VALID,918.936,VALID,0,VALID,79.4894,VALID,397.747,VALID,23.6584,VALID,255,VALID,0,
2015-11-16, 09:41:04,VALID,918.934,VALID,0,VALID,81.1589,VALID,406.772,VALID,23.756,VALID,256,VALID,0,
2015-11-16, 09:42:04,VALID,918.884,VALID,0,VALID,78.1248,VALID,411.392,VALID,23.795,VALID,255,VALID,0,
2015-11-16, 09:43:04,VALID,918.91,VALID,0,VALID,78.6737,VALID,411.5,VALID,23.6974,VALID,253,VALID,0,
2015-11-16, 09:44:04,VALID,918.866,VALID,0,VALID,80.0687,VALID,406.772,VALID,23.6193,VALID,252,VALID,0,
2015-11-16, 09:45:04,VALID,918.838,VALID,0,VALID,79.4055,VALID,399.036,VALID,23.5803,VALID,250,VALID,0,
2015-11-16, 09:46:04,VALID,918.884,VALID,0,VALID,79.5046,VALID,392.697,VALID,23.5821,VALID,255,VALID,0,
2015-11-16, 09:47:04,VALID,918.843,VALID,0,VALID,79.0853,VALID,389.367,VALID,23.4827,VALID,269,VALID,0,
2015-11-16, 09:48:04,VALID,918.841,VALID,0,VALID,77.9113,VALID,387.218,VALID,23.4046,VALID,258,VALID,0,
2015-11-16, 09:49:04,VALID,918.824,VALID,0,VALID,79.0167,VALID,385.499,VALID,23.4046,VALID,250,VALID,0,
2015-11-16, 09:50:04,VALID,918.823,VALID,0,VALID,82.6759,VALID,376.581,VALID,23.5412,VALID,273,VALID,0,
2015-11-16, 09:51:04,VALID,918.833,VALID,0,VALID,79.2759,VALID,368.631,VALID,23.5412,VALID,244,VALID,0,
2015-11-16, 09:52:04,VALID,918.859,VALID,0,VALID,80.9607,VALID,359.391,VALID,23.5608,VALID,263,VALID,0,
2015-11-16, 09:53:04,VALID,918.836,VALID,0,VALID,79.497,VALID,346.713,VALID,23.5608,VALID,262,VALID,0,
2015-11-16, 09:54:04,VALID,918.844,VALID,0,VALID,79.3826,VALID,334.249,VALID,23.6193,VALID,256,VALID,0,
2015-11-16, 09:55:04,VALID,918.884,VALID,0,VALID,80.6862,VALID,321.786,VALID,23.756,VALID,243,VALID,0,
2015-11-16, 09:56:04,VALID,918.89,VALID,0,VALID,80.8768,VALID,311.364,VALID,23.6779,VALID,245,VALID,0,
2015-11-16, 09:57:04,VALID,918.865,VALID,0,VALID,81.9288,VALID,303.091,VALID,23.6974,VALID,278,VALID,0,
2015-11-16, 09:58:04,VALID,918.896,VALID,0,VALID,78.7956,VALID,297.29,VALID,23.6779,VALID,278,VALID,0,
2015-11-16, 09:59:04,VALID,918.896,VALID,0,VALID,78.8109,VALID,294.174,VALID,23.7346,VALID,278,VALID,0,
2015-11-16, 10:00:04,VALID,918.878,VALID,0,VALID,79.3216,VALID,294.389,VALID,23.7542,VALID,255,VALID,0,
2015-11-16, 10:01:04,VALID,918.9,VALID,0,VALID,80.3737,VALID,296.967,VALID,23.8908,VALID,255,VALID,0,
2015-11-16, 10:02:04,VALID,918.901,VALID,0,VALID,80.3508,VALID,301.265,VALID,23.9493,VALID,255,VALID,0,
2015-11-16, 10:03:04,VALID,918.894,VALID,0,VALID,79.2912,VALID,306.959,VALID,24.0469,INVALID,360,VALID,0,
2015-11-16, 10:04:04,VALID,918.873,VALID,0,VALID,79.4817,VALID,313.621,VALID,24.1055,VALID,317,VALID,0,
2015-11-16, 10:05:04,VALID,918.852,VALID,0,VALID,78.1858,VALID,320.604,VALID,24.1464,VALID,263,VALID,0,
2015-11-16, 10:06:04,VALID,918.883,VALID,0,VALID,79.1997,VALID,324.795,VALID,24.1055,VALID,261,VALID,0,
2015-11-16, 10:07:04,VALID,918.859,VALID,0,VALID,78.1553,VALID,325.869,VALID,24.125,VALID,269,VALID,0,
2015-11-16, 10:08:04,VALID,918.857,VALID,0,VALID,78.3001,VALID,324.15,VALID,24.1445,VALID,299,VALID,0,
2015-11-16, 10:09:04,VALID,918.877,VALID,0,VALID,78.7499,VALID,320.712,VALID,24.2245,VALID,281,VALID,0,
2015-11-16, 10:10:04,VALID,918.855,VALID,0,VALID,78.9786,VALID,316.951,VALID,24.3007,VALID,307,VALID,0,
2015-11-16, 10:11:04,VALID,918.881,VALID,0,VALID,77.9875,VALID,313.298,VALID,24.4002,VALID,323,VALID,0,
2015-11-16, 10:12:04,VALID,918.882,VALID,0,VALID,77.0422,VALID,310.075,VALID,24.2617,VALID,298,VALID,0,
2015-11-16, 10:13:04,VALID,918.905,VALID,0,VALID,79.2378,VALID,306.959,VALID,24.1269,VALID,328,VALID,0,
2015-11-16, 10:14:04,VALID,918.887,VALID,0,VALID,77.9875,VALID,304.381,VALID,24.0097,VALID,316,VALID,0,
2015-11-16, 10:15:04,VALID,918.883,VALID,0,VALID,78.4373,VALID,302.662,VALID,23.834,VALID,304,VALID,0,
2015-11-16, 10:16:04,VALID,918.858,VALID,0,VALID,80.0078,VALID,302.554,VALID,23.756,VALID,300,VALID,0,
2015-11-16, 10:17:04,VALID,918.892,VALID,0,VALID,81.0826,VALID,303.306,VALID,23.834,VALID,293,VALID,0,
2015-11-16, 10:18:04,VALID,918.841,VALID,0,VALID,78.5745,VALID,303.951,VALID,23.8145,VALID,284,VALID,0,
2015-11-16, 10:19:04,VALID,918.836,VALID,0,VALID,79.2225,VALID,304.381,VALID,23.7932,VALID,284,VALID,0,
2015-11-16, 10:20:04,VALID,918.857,VALID,0,VALID,79.5732,VALID,302.769,VALID,23.9121,VALID,284,VALID,0,
2015-11-16, 10:21:04,VALID,918.834,VALID,0,VALID,78.6508,VALID,299.224,VALID,23.9707,VALID,271,VALID,0,
2015-11-16, 10:22:04,VALID,918.812,VALID,0,VALID,78.5745,VALID,295.463,VALID,23.9689,VALID,276,VALID,0,
2015-11-16, 10:23:04,VALID,918.829,VALID,0,VALID,78.2086,VALID,292.24,VALID,24.0683,VALID,276,VALID,0,
2015-11-16, 10:24:04,VALID,918.81,VALID,0,VALID,78.5593,VALID,290.843,VALID,24.0469,VALID,276,VALID,0,
2015-11-16, 10:25:04,VALID,918.792,VALID,0,VALID,79.4131,VALID,291.918,VALID,24.1641,VALID,276,VALID,0,
2015-11-16, 10:26:04,VALID,918.82,VALID,0,VALID,79.2378,VALID,294.711,VALID,24.3806,VALID,339,VALID,0,
2015-11-16, 10:27:04,VALID,918.814,VALID,0,VALID,79.3445,VALID,299.546,VALID,24.5759,VALID,339,VALID,0,
2015-11-16, 10:28:04,VALID,918.772,VALID,0,VALID,78.7575,VALID,305.67,VALID,24.7321,VALID,339,VALID,0,
2015-11-16, 10:29:04,VALID,918.795,VALID,0,VALID,76.8517,VALID,310.935,VALID,24.7711,VALID,337,VALID,0,
2015-11-16, 10:30:04,VALID,918.782,VALID,0,VALID,76.0969,VALID,315.34,VALID,24.6326,VALID,315,VALID,0,
2015-11-16, 10:31:04,VALID,918.786,VALID,0,VALID,77.3929,VALID,318.348,VALID,24.4197,VALID,315,VALID,0,
2015-11-16, 10:32:04,VALID,918.785,VALID,0,VALID,77.9342,VALID,320.175,VALID,24.3983,VALID,302,VALID,0,
2015-11-16, 10:33:04,VALID,918.78,VALID,0,VALID,78.4983,VALID,320.175,VALID,24.2226,VALID,302,VALID,0,
2015-11-16, 10:34:04,VALID,918.776,VALID,0,VALID,79.1997,VALID,318.348,VALID,24.1445,VALID,304,VALID,0,
2015-11-16, 10:35:04,VALID,918.807,VALID,0,VALID,79.5656,VALID,315.984,VALID,24.0488,VALID,304,VALID,0,
2015-11-16, 10:36:04,VALID,918.777,VALID,0,VALID,79.9468,VALID,314.05,VALID,23.9689,VALID,304,VALID,0,
2015-11-16, 10:37:04,VALID,918.79,VALID,0,VALID,80.1145,VALID,311.902,VALID,23.9493,VALID,304,VALID,0,
2015-11-16, 10:38:04,VALID,918.757,VALID,0,VALID,80.3889,VALID,309.86,VALID,23.9298,VALID,304,VALID,0,
2015-11-16, 10:39:04,VALID,918.776,VALID,0,VALID,80.1526,VALID,309.538,VALID,23.9689,VALID,304,VALID,0,
2015-11-16, 10:40:04,VALID,918.763,VALID,0,VALID,80.4118,VALID,310.72,VALID,24.0469,VALID,304,VALID,0,
2015-11-16, 10:41:04,VALID,918.76,VALID,0,VALID,78.4145,VALID,312.331,VALID,24.1641,VALID,269,VALID,0,
2015-11-16, 10:42:04,VALID,918.745,VALID,0,VALID,79.9773,VALID,316.307,VALID,24.125,VALID,269,VALID,0,
2015-11-16, 10:43:04,VALID,918.672,VALID,0,VALID,79.4436,VALID,323.29,VALID,24.1445,VALID,300,VALID,0,
2015-11-16, 10:44:04,VALID,918.72,VALID,0,VALID,78.4145,VALID,332.638,VALID,24.2031,VALID,261,VALID,0,
2015-11-16, 10:45:04,VALID,918.687,VALID,0,VALID,79.1844,VALID,408.276,VALID,24.3007,VALID,261,VALID,0,
2015-11-16, 10:46:04,VALID,918.664,VALID,0,VALID,78.8871,VALID,350.043,VALID,24.2812,VALID,273,VALID,0,
2015-11-16, 10:47:04,VALID,918.664,VALID,0,VALID,78.1705,VALID,341.77,VALID,24.2812,VALID,284,VALID,0,
2015-11-16, 10:48:04,VALID,918.633,VALID,0,VALID,78.14,VALID,345.101,VALID,24.3398,VALID,285,VALID,0,
2015-11-16, 10:49:04,VALID,918.609,VALID,0,VALID,79.1997,VALID,356.49,VALID,24.3202,VALID,303,VALID,0,
2015-11-16, 10:50:04,VALID,918.606,VALID,0,VALID,78.384,VALID,386.681,VALID,24.2617,VALID,303,VALID,0,
2015-11-16, 10:51:04,VALID,918.621,VALID,0,VALID,79.9544,VALID,379.052,VALID,24.2812,VALID,303,VALID,0,
2015-11-16, 10:52:04,VALID,918.595,VALID,0,VALID,78.971,VALID,353.804,VALID,24.3398,VALID,301,VALID,0,
2015-11-16, 10:53:04,VALID,918.579,VALID,0,VALID,79.3979,VALID,341.663,VALID,24.2617,VALID,302,VALID,0,
2015-11-16, 10:54:04,VALID,918.581,VALID,0,VALID,80.3356,VALID,330.059,VALID,24.3202,VALID,351,VALID,0,
2015-11-16, 10:55:04,VALID,918.546,VALID,0,VALID,79.8248,VALID,321.786,VALID,24.4959,VALID,351,VALID,0,
2015-11-16, 10:56:04,VALID,918.548,VALID,0,VALID,77.9952,VALID,316.414,VALID,24.6326,VALID,305,VALID,0,
2015-11-16, 10:57:04,VALID,918.538,VALID,0,VALID,78.3992,VALID,312.546,VALID,24.6131,VALID,304,VALID,0,
2015-11-16, 10:58:04,VALID,918.545,VALID,0,VALID,77.2938,VALID,312.117,VALID,24.574,VALID,304,VALID,0,
2015-11-16, 10:59:04,VALID,918.511,VALID,0,VALID,77.1032,VALID,315.877,VALID,24.6131,VALID,304,VALID,0,
2015-11-16, 11:00:04,VALID,918.516,VALID,0,VALID,77.3319,VALID,320.39,VALID,24.6521,VALID,304,VALID,0,
2015-11-16, 11:01:04,VALID,918.489,VALID,0,VALID,76.5543,VALID,328.018,VALID,24.7497,VALID,304,VALID,0,
2015-11-16, 11:02:04,VALID,918.487,VALID,0,VALID,77.6369,VALID,337.902,VALID,24.6307,VALID,323,VALID,0,
2015-11-16, 11:03:04,VALID,918.473,VALID,0,VALID,80.7548,VALID,347.894,VALID,24.6521,VALID,334,VALID,0,
2015-11-16, 11:04:04,VALID,918.429,VALID,0,VALID,83.7813,VALID,356.06,VALID,24.7302,VALID,351,VALID,0,
2015-11-16, 11:05:04,VALID,918.402,VALID,0,VALID,81.8526,VALID,361.862,VALID,24.8083,VALID,351,VALID,0,
2015-11-16, 11:06:04,VALID,918.391,VALID,0,VALID,80.6252,VALID,366.912,VALID,24.8278,VALID,304,VALID,0,
2015-11-16, 11:07:04,VALID,918.367,VALID,0,VALID,78.8337,VALID,374.647,VALID,24.8474,VALID,304,VALID,0,
2015-11-16, 11:08:04,VALID,918.328,VALID,0,VALID,79.1158,VALID,388.615,VALID,24.6716,VALID,287,VALID,0,
2015-11-16, 11:09:04,VALID,918.334,VALID,0,VALID,79.2225,VALID,405.913,VALID,24.3788,VALID,287,VALID,0,
2015-11-16, 11:10:04,VALID,918.273,VALID,0,VALID,80.084,VALID,423.103,VALID,24.2013,VALID,287,VALID,0,
2015-11-16, 11:11:04,VALID,918.27,VALID,0,VALID,81.2275,VALID,441.798,VALID,24.1445,VALID,287,VALID,0,
2015-11-16, 11:12:04,VALID,918.25,VALID,0,VALID,81.5401,VALID,466.617,VALID,24.1836,VALID,278,VALID,0.01875,
2015-11-16, 11:13:04,VALID,918.23,VALID,0,VALID,80.8692,VALID,488.857,VALID,24.125,VALID,255,VALID,0,
2015-11-16, 11:14:04,VALID,918.222,VALID,0,VALID,80.9683,VALID,488.857,VALID,24.125,VALID,218,VALID,0,
2015-11-16, 11:15:04,VALID,918.216,VALID,0,VALID,79.9163,VALID,493.585,VALID,24.2617,VALID,217,VALID,0,
2015-11-16, 11:16:04,VALID,918.192,VALID,0,VALID,79.4055,VALID,512.817,VALID,24.4178,VALID,217,VALID,0,
2015-11-16, 11:17:04,VALID,918.198,VALID,0,VALID,79.6647,VALID,565.14,VALID,24.574,VALID,217,VALID,0,
2015-11-16, 11:18:04,VALID,918.174,VALID,0,VALID,79.2988,VALID,592.108,VALID,24.8455,VALID,217,VALID,0,
2015-11-16, 11:19:04,VALID,918.196,VALID,0,VALID,79.2683,VALID,632.399,VALID,25.1774,VALID,302,VALID,0,
2015-11-16, 11:20:04,VALID,918.167,VALID,0,VALID,76.5925,VALID,602.53,VALID,25.3336,VALID,302,VALID,0,
2015-11-16, 11:21:04,VALID,918.182,VALID,0,VALID,74.8315,VALID,557.19,VALID,25.5503,VALID,302,VALID,0,
2015-11-16, 11:22:04,VALID,918.165,VALID,0,VALID,74.3969,VALID,527.106,VALID,25.646,VALID,289,VALID,0,
2015-11-16, 11:23:04,VALID,918.147,VALID,0,VALID,74.5723,VALID,507.874,VALID,25.3922,VALID,259,VALID,0,
2015-11-16, 11:24:04,VALID,918.108,VALID,0,VALID,75.4032,VALID,506.478,VALID,25.2164,VALID,259,VALID,0,
2015-11-16, 11:25:04,VALID,918.111,VALID,0,VALID,74.214,VALID,509.056,VALID,25.236,VALID,259,VALID,0,
2015-11-16, 11:26:04,VALID,918.08,VALID,0,VALID,72.6664,VALID,585.017,VALID,25.1207,VALID,259,VALID,0,
2015-11-16, 11:27:04,VALID,918.035,VALID,0,VALID,73.3449,VALID,538.495,VALID,25.2769,VALID,259,VALID,0,
2015-11-16, 11:28:04,VALID,918.013,VALID,0,VALID,73.3296,VALID,510.131,VALID,25.275,VALID,259,VALID,0,
2015-11-16, 11:29:04,VALID,918.031,VALID,0,VALID,72.2014,VALID,433.74,VALID,25.3141,VALID,261,VALID,0,
2015-11-16, 11:30:04,VALID,918.012,VALID,0,VALID,74.1225,VALID,359.606,VALID,25.2945,VALID,302,VALID,0,
2015-11-16, 11:31:04,VALID,917.976,VALID,0,VALID,74.1225,VALID,341.77,VALID,25.3355,VALID,304,VALID,0,